2023/07/04 00:00:00, 0.5,22.1
2023/07/04 00:10:00, 0.5,22.3
2023/07/04 00:20:00, 0.4,22.2
2023/07/04 00:30:00, 0.5,21.9
2023/07/04 00:40:00, 0.5,22.2
2023/07/04 00:50:00, 0.5,22.3
2023/07/04 01:00:00, 0.5,22.3
2023/07/04 01:10:00, 0.5,22.1
2023/07/04 01:20:00, 0.5,21.9
2023/07/04 01:30:00, 0.5,22.1
2023/07/04 01:40:00, 0.5,21.9
2023/07/04 01:50:00, 0.5,21.9
2023/07/04 02:00:00, 0.5,21.6
2023/07/04 02:10:00, 0.5,21.3
2023/07/04 02:20:00, 0.5,21.3
2023/07/04 02:30:00, 0.5,21.5
2023/07/04 02:40:00, 0.5,21.1
2023/07/04 02:50:00, 0.5,21.2
2023/07/04 03:00:00, 0.5,21.3
2023/07/04 03:10:00, 0.5,21.3
2023/07/04 03:20:00, 0.5,21.0
2023/07/04 03:30:00, 0.5,21.0
2023/07/04 03:40:00, 0.5,21.1
2023/07/04 03:50:00, 0.5,21.0
2023/07/04 04:00:00, 0.5,20.7
2023/07/04 04:10:00, 0.5,20.8
2023/07/04 04:20:00, 0.4,20.4
2023/07/04 04:30:00, 0.5,20.5
2023/07/04 04:40:00, 0.5,20.4
2023/07/04 04:50:00, 0.5,20.4
2023/07/04 05:00:00, 0.5,20.6
2023/07/04 05:10:00, 0.4,20.4
2023/07/04 05:20:00, 0.5,20.4
2023/07/04 05:30:00, 0.5,20.5
2023/07/04 05:40:00, 0.5,20.6
2023/07/04 05:50:00, 0.5,20.6
2023/07/04 06:00:00, 0.5,20.8
2023/07/04 06:10:00, 0.5,21.1
2023/07/04 06:20:00, 0.4,22.9
2023/07/04 06:30:00, 0.5,22.9
2023/07/04 06:40:00, 0.5,24.5
2023/07/04 06:50:00, 0.4,29.5
2023/07/04 07:00:00, 0.3,28.1
2023/07/04 07:10:00, 0.3,29.0
2023/07/04 07:20:00, 0.2,29.2
2023/07/04 07:30:00, 0.2,27.2
2023/07/04 07:40:00, 0.2,24.8
2023/07/04 07:50:00, 0.2,25.1
2023/07/04 08:00:00, 0.1,25.3
2023/07/04 08:10:00, 0.2,25.7
2023/07/04 08:20:00, 0.2,26.5
2023/07/04 08:30:00, 0.1,26.8
2023/07/04 08:40:00, 0.2,27.3
2023/07/04 08:50:00, 0.2,28.4
2023/07/04 09:00:00, 0.3,29.3
2023/07/04 09:10:00, 0.3,29.6
2023/07/04 09:20:00, 0.3,30.0
2023/07/04 09:30:00, 0.3,30.5
2023/07/04 09:40:00, 0.3,29.9
2023/07/04 09:50:00, 0.4,30.7
2023/07/04 10:00:00, 0.4,31.2
2023/07/04 10:10:00, 0.4,31.4
2023/07/04 10:20:00, 0.4,31.2
2023/07/04 10:30:00, 0.4,31.2
2023/07/04 10:40:00, 0.4,31.8
2023/07/04 10:50:00, 0.4,31.7
2023/07/04 11:00:00, 0.4,32.6
2023/07/04 11:10:00, 0.4,32.8
2023/07/04 11:20:00, 0.5,33.2
2023/07/04 11:30:00, 0.4,32.9
2023/07/04 11:40:00, 0.4,32.9
2023/07/04 11:50:00, 0.4,33.4
2023/07/04 12:00:00, 0.4,33.4
2023/07/04 12:10:00, 0.4,33.6
2023/07/04 12:20:00, 0.4,33.3
2023/07/04 12:30:00, 0.5,33.0
2023/07/04 12:40:00, 0.4,32.8
2023/07/04 12:50:00, 0.5,31.8
2023/07/04 13:00:00, 0.5,31.6
2023/07/04 13:10:00, 0.4,30.8
2023/07/04 13:20:00, 0.5,30.4
2023/07/04 13:30:00, 0.2,30.8
2023/07/04 13:40:00, 0.1,30.5
2023/07/04 13:50:00, 0.2,30.6
2023/07/04 14:00:00, 0.2,30.9
2023/07/04 14:10:00, 0.1,30.7
2023/07/04 14:20:00, 0.2,30.5
2023/07/04 14:30:00, 0.2,30.7
2023/07/04 14:40:00, 0.3,30.4
2023/07/04 14:50:00, 0.3,30.2
2023/07/04 15:00:00, 0.3,30.0
2023/07/04 15:10:00, 0.3,29.7
2023/07/04 15:20:00, 0.2,29.5
2023/07/04 15:30:00, 0.2,29.1
2023/07/04 15:40:00, 0.3,29.1
2023/07/04 15:50:00, 0.3,28.8
2023/07/04 16:00:00, 0.3,29.0
2023/07/04 16:10:00, 0.3,28.9
2023/07/04 16:20:00, 0.3,28.9
2023/07/04 16:30:00, 0.4,28.8
2023/07/04 16:40:00, 0.4,28.9
2023/07/04 16:50:00, 0.4,28.3
2023/07/04 17:00:00, 0.3,28.2
2023/07/04 17:10:00, 0.3,28.0
2023/07/04 17:20:00, 0.3,27.8
2023/07/04 17:30:00, 0.3,27.6
2023/07/04 17:40:00, 0.3,27.5
2023/07/04 17:50:00, 0.3,27.2
2023/07/04 18:00:00, 0.3,27.2
2023/07/04 18:10:00, 0.3,27.0
2023/07/04 18:20:00, 0.3,27.1
2023/07/04 18:30:00, 0.3,26.8
2023/07/04 18:40:00, 0.3,26.7
2023/07/04 18:50:00, 0.4,26.5
2023/07/04 19:00:00, 0.4,26.0
2023/07/04 19:10:00, 0.4,25.7
2023/07/04 19:20:00, 0.4,25.6
2023/07/04 19:30:00, 0.4,25.1
2023/07/04 19:40:00, 0.3,24.9
2023/07/04 19:50:00, 0.4,24.8
2023/07/04 20:00:00, 0.3,24.6
2023/07/04 20:10:00, 0.4,24.4
2023/07/04 20:20:00, 0.4,24.3
2023/07/04 20:30:00, 0.3,24.0
2023/07/04 20:40:00, 0.3,24.0
2023/07/04 20:50:00, 0.4,23.8
2023/07/04 21:00:00, 0.4,23.5
2023/07/04 21:10:00, 0.4,23.6
2023/07/04 21:20:00, 0.4,23.3
2023/07/04 21:30:00, 0.4,23.2
2023/07/04 21:40:00, 0.4,23.1
2023/07/04 21:50:00, 0.4,23.0
2023/07/04 22:00:00, 0.4,23.0
2023/07/04 22:10:00, 0.4,22.9
2023/07/04 22:20:00, 0.4,22.6
2023/07/04 22:30:00, 0.4,22.3
2023/07/04 22:40:00, 0.4,22.5
2023/07/04 22:50:00, 0.4,22.3
2023/07/04 23:00:00, 0.4,22.1
2023/07/04 23:10:00, 0.4,22.0
2023/07/04 23:20:00, 0.4,21.7
2023/07/04 23:30:00, 0.4,21.7
2023/07/04 23:40:00, 0.4,21.7
2023/07/04 23:50:00, 0.4,21.5
